This is the latest recevied weather packets stored in our database for station/object DB5WY-13. If no packets are shown the sender has not sent any weather packets the latest 10 day(s).
| Time | Temp. | Humidity | Pressure | Rain* | Wind** | Luminosity | Snow |
|---|---|---|---|---|---|---|---|
| 1776954651 | 18.89° C | 22% | 1026.9 hPa | 0 mm | - | - | - |
| 1776954051 | 20° C | 20% | 1026.9 hPa | 0 mm | - | - | - |
| 1776953451 | 22.22° C | 18% | 1027.1 hPa | 0 mm | - | - | - |
| 1776952851 | 26.11° C | 17% | 1027.1 hPa | 0 mm | - | - | - |
| 1776952251 | 28.89° C | 15% | 1027.2 hPa | 0 mm | - | - | - |
| 1776951651 | 29.44° C | 15% | 1027.3 hPa | 0 mm | - | - | - |
| 1776951051 | 29.44° C | 16% | 1027.4 hPa | 0 mm | - | - | - |
| 1776950451 | 28.89° C | 16% | 1027.6 hPa | 0 mm | - | - | - |
| 1776949851 | 28.89° C | 17% | 1027.7 hPa | 0 mm | - | - | - |
| 1776949251 | 28.89° C | 17% | 1027.8 hPa | 0 mm | - | - | - |
| 1776948651 | 28.89° C | 17% | 1027.8 hPa | 0 mm | - | - | - |
| 1776947451 | 28.89° C | 19% | 1027.9 hPa | 0 mm | - | - | - |
| 1776946852 | 29.44° C | 19% | 1027.9 hPa | 0 mm | - | - | - |
| 1776946252 | 28.89° C | 19% | 1028.1 hPa | 0 mm | - | - | - |
| 1776945652 | 28.89° C | 20% | 1028.1 hPa | 0 mm | - | - | - |
| 1776945052 | 28.89° C | 20% | 1028.3 hPa | 0 mm | - | - | - |
| 1776944452 | 28.89° C | 20% | 1028.3 hPa | 0 mm | - | - | - |
| 1776943852 | 29.44° C | 19% | 1028.4 hPa | 0 mm | - | - | - |
| 1776943252 | 29.44° C | 17% | 1028.4 hPa | 0 mm | - | - | - |
| 1776942652 | 30° C | 17% | 1028.4 hPa | 0 mm | - | - | - |
| 1776942052 | 29.44° C | 19% | 1028.6 hPa | 0 mm | - | - | - |
| 1776941452 | 28.89° C | 19% | 1028.5 hPa | 0 mm | - | - | - |
| 1776940852 | 28.89° C | 20% | 1028.7 hPa | 0 mm | - | - | - |
| 1776940252 | 27.78° C | 20% | 1028.6 hPa | 0 mm | - | - | - |
| 1776939652 | 27.78° C | 21% | 1028.8 hPa | 0 mm | - | - | - |
* Rain latest hour (hover to see other rain measurements)
** Current wind speed in m/s (hover to see current wind gust speed)